Temp
-14 -15 -15 -14 -14 -14 -14 -14 -14 -14 -14 -13 -14 -13 -13 -13 -13 -12 -12 -12 -11 -11 -11 -11 -11 -11 -11 -11 -11 -11 -10 -10 -10 -10 -11 -10 -10 -10 -10 -9 -9 -9 -9
-15 -15 -15 -14 -15 -15 -14 -15 -14 -14 -14 -14 -14 -14 -14 -13 -13 -13 -13 -13 -12 -12 -12 -11 -11 -11 -11 -12 -11 -11 -11 -11 -11 -10 -11 -11 -11 -11 -10 -10 -9 -10 -10
-15 -15 -15 -14 -15 -15 -15 -15 -14 -14 -14 -14 -14 -13 -13 -13 -14 -14 -14 -13 -13 -13 -13 -12 -13 -13 -12 -12 -12 -12 -12 -11 -11 -10 -11 -12 -12 -12 -11 -11 -10 -10 -10
-14 -14 -14 -14 -14 -14 -14 -14 -14 -14 -13 -13 -13 -12 -12 -13 -13 -14 -14 -14 -13 -13 -13 -13 -13 -13 -13 -13 -12 -12 -13 -13 -12 -12 -11 -12 -13 -13 -12 -12 -11 -11 -11
-14 -14 -14 -14 -14 -14 -14 -14 -14 -14 -14 -13 -13 -13 -13 -14 -14 -15 -15 -15 -14 -14 -13 -13 -13 -13 -14 -14 -13 -12 -12 -13 -13 -12 -12 -13 -14 -14 -13 -13 -12 -12 -11
-14 -14 -14 -14 -14 -14 -14 -14 -14 -14 -14 -13 -13 -14 -14 -14 -14 -14 -15 -14 -14 -14 -14 -13 -14 -14 -14 -14 -13 -12 -13 -13 -13 -12 -12 -12 -14 -14 -14 -14 -12 -12 -12
-14 -15 -15 -15 -14 -15 -15 -15 -15 -15 -14 -15 -15 -15 -15 -15 -15 -15 -15 -15 -14 -14 -14 -14 -14 -14 -14 -14 -13 -12 -12 -13 -14 -13 -12 -13 -14 -15 -15 -14 -13 -13 -13
-16 -15 -15 -15 -15 -16 -16 -16 -16 -16 -16 -16 -16 -16 -15 -15 -15 -15 -15 -15 -15 -14 -14 -14 -14 -14 -13 -13 -13 -13 -13 -13 -13 -14 -13 -14 -15 -15 -15 -14 -14 -14 -14
-16 -16 -16 -16 -16 -17 -16 -16 -16 -16 -16 -16 -15 -15 -15 -15 -15 -15 -15 -15 -15 -15 -15 -15 -15 -15 -14 -14 -14 -13 -13 -13 -14 -14 -15 -15 -15 -15 -14 -14 -15 -15 -15
-17 -17 -17 -17 -17 -16 -16 -15 -15 -15 -15 -15 -15 -15 -15 -15 -15 -15 -15 -15 -15 -15 -16 -16 -16 -16 -15 -15 -14 -14 -14 -14 -15 -15 -15 -15 -15 -15 -14 -14 -15 -15 -15
-16 -16 -16 -16 -16 -15 -15 -15 -15 -15 -15 -15 -15 -15 -15 -15 -16 -16 -16 -16 -16 -16 -16 -17 -17 -16 -16 -16 -16 -16 -15 -16 -16 -15 -15 -14 -15 -15 -15 -15 -15 -14 -15
-16 -16 -16 -15 -15 -15 -15 -15 -15 -15 -15 -15 -15 -16 -16 -16 -16 -16 -16 -16 -17 -17 -17 -17 -16 -16 -17 -17 -16 -16 -16 -16 -16 -16 -15 -15 -16 -16 -16 -16 -15 -15 -14
-16 -16 -15 -15 -15 -15 -15 -15 -15 -15 -15 -15 -16 -16 -16 -16 -16 -16 -16 -17 -17 -17 -17 -17 -17 -17 -17 -16 -16 -16 -16 -16 -15 -15 -16 -16 -16 -16 -16 -15 -15 -16 -15
-15 -15 -15 -15 -15 -15 -15 -15 -15 -16 -16 -16 -16 -16 -16 -16 -16 -16 -17 -17 -17 -17 -17 -17 -17 -18 -17 -17 -16 -16 -16 -15 -15 -15 -16 -16 -16 -16 -16 -15 -16 -16 -16
-15 -15 -16 -16 -15 -16 -16 -16 -16 -16 -16 -16 -16 -17 -17 -17 -17 -17 -17 -17 -18 -18 -18 -18 -18 -18 -17 -17 -16 -16 -16 -16 -15 -16 -17 -17 -17 -17 -17 -17 -16 -17 -16
-15 -15 -16 -16 -16 -16 -16 -16 -16 -17 -17 -17 -18 -18 -18 -18 -18 -17 -17 -17 -18 -18 -19 -19 -19 -18 -17 -16 -16 -16 -16 -16 -16 -16 -16 -16 -17 -17 -18 -17 -16 -15 -15
-15 -16 -16 -16 -16 -16 -16 -17 -17 -18 -18 -19 -19 -19 -19 -18 -18 -18 -18 -18 -18 -19 -19 -19 -18 -17 -17 -16 -16 -16 -15 -16 -17 -17 -17 -17 -17 -17 -16 -16 -15 -15 -15
-15 -16 -15 -16 -16 -17 -16 -17 -18 -18 -18 -20 -20 -19 -19 -19 -19 -19 -18 -18 -18 -18 -18 -18 -18 -17 -16 -17 -17 -18 -18 -18 -18 -17 -17 -16 -16 -15 -16 -16 -16 -16 -16
-15 -15 -16 -16 -17 -16 -17 -17 -17 -18 -18 -19 -19 -19 -19 -19 -19 -19 -18 -18 -17 -18 -18 -18 -17 -18 -19 -18 -18 -18 -17 -17 -16 -16 -16 -16 -16 -16 -16 -16 -16 -15 -15
-15 -16 -16 -17 -17 -17 -17 -17 -18 -18 -18 -19 -19 -19 -19 -19 -19 -19 -19 -19 -18 -18 -18 -17 -18 -18 -19 -19 -18 -17 -17 -17 -17 -17 -17 -16 -16 -16 -16 -16 -16 -16 -16
-15 -16 -16 -17 -17 -17 -17 -17 -18 -18 -18 -19 -19 -20 -20 -20 -20 -19 -19 -18 -18 -18 -18 -18 -18 -18 -18 -18 -17 -17 -17 -17 -17 -17 -16 -16 -16 -16 -16 -16 -16 -16 -16
-15 -16 -17 -17 -17 -17 -17 -18 -18 -18 -18 -19 -19 -20 -20 -20 -20 -19 -18 -18 -18 -18 -18 -18 -18 -18 -18 -18 -18 -17 -17 -17 -17 -17 -16 -16 -16 -16 -16 -16 -16 -16 -16
-16 -16 -17 -18 -18 -18 -18 -17 -18 -18 -19 -19 -19 -19 -19 -19 -18 -18 -18 -18 -17 -17 -18 -18 -17 -18 -18 -17 -17 -17 -17 -17 -17 -17 -16 -17 -16 -16 -16 -16 -16 -16 -16
-16 -17 -18 -18 -18 -18 -18 -17 -18 -18 -18 -17 -16 -17 -17 -17 -17 -17 -18 -17 -17 -17 -17 -17 -17 -17 -17 -17 -17 -17 -17 -17 -17 -17 -17 -17 -17 -17 -16 -16 -16 -16 -16
-16 -17 -18 -18 -18 -18 -18 -17 -18 -18 -17 -17 -16 -17 -17 -17 -18 -17 -17 -17 -17 -17 -17 -17 -17 -17 -17 -17 -17 -17 -17 -17 -17 -17 -17 -17 -17 -16 -16 -17 -16 -16 -16
-16 -16 -17 -18 -18 -18 -18 -18 -17 -17 -17 -17 -17 -17 -17 -17 -17 -17 -17 -17 -17 -17 -17 -17 -17 -17 -17 -17 -17 -17 -17 -18 -17 -17 -17 -17 -17 -17 -17 -17 -17 -16 -16
Height
5727 5727 5726 5724 5722 5721 5720 5719 5718 5716 5715 5714 5713 5711 5708 5705 5701 5698 5696 5692 5691 5691 5691 5690 5691 5692 5692 5694 5696 5698 5701 5702 5704 5711 5715 5715 5717 5717 5719 5721 5725 5728 5730
5714 5713 5711 5711 5708 5706 5706 5704 5701 5701 5700 5699 5696 5695 5693 5691 5687 5683 5681 5679 5677 5676 5675 5673 5673 5672 5674 5676 5678 5681 5684 5686 5688 5691 5696 5699 5702 5701 5705 5708 5712 5716 5718
5700 5699 5698 5696 5694 5693 5691 5688 5686 5684 5682 5680 5679 5678 5676 5673 5671 5668 5664 5662 5661 5659 5657 5656 5657 5656 5656 5656 5660 5664 5665 5668 5672 5674 5677 5681 5684 5687 5690 5693 5696 5701 5704
5687 5685 5683 5681 5679 5677 5675 5672 5670 5667 5665 5662 5660 5658 5656 5654 5651 5650 5647 5646 5644 5642 5641 5638 5637 5640 5639 5639 5641 5645 5649 5650 5654 5658 5660 5663 5666 5671 5675 5680 5684 5686 5691
5673 5670 5667 5665 5662 5660 5657 5654 5651 5648 5645 5642 5640 5638 5636 5634 5633 5631 5629 5627 5626 5625 5624 5622 5622 5621 5622 5623 5624 5627 5630 5632 5634 5639 5643 5647 5651 5655 5660 5664 5669 5672 5678
5657 5654 5651 5647 5644 5641 5637 5635 5632 5628 5625 5623 5621 5618 5617 5615 5613 5612 5609 5607 5607 5607 5606 5605 5605 5605 5605 5605 5606 5608 5614 5617 5618 5622 5627 5633 5638 5641 5645 5650 5655 5658 5664
5641 5637 5633 5630 5627 5623 5619 5616 5613 5610 5606 5604 5601 5598 5597 5596 5595 5593 5591 5589 5588 5588 5588 5588 5588 5589 5588 5588 5589 5592 5596 5600 5604 5607 5612 5618 5623 5628 5632 5634 5641 5645 5650
5624 5621 5617 5612 5609 5606 5602 5599 5595 5591 5588 5586 5584 5581 5580 5579 5577 5574 5573 5572 5572 5572 5573 5574 5573 5574 5573 5573 5573 5575 5580 5584 5587 5592 5598 5603 5609 5614 5619 5625 5629 5633 5637
5608 5604 5600 5596 5592 5589 5585 5581 5577 5573 5570 5568 5565 5564 5563 5562 5560 5557 5555 5555 5555 5555 5554 5554 5554 5555 5555 5556 5557 5558 5563 5567 5571 5577 5582 5588 5593 5601 5607 5615 5619 5622 5625
5594 5591 5586 5581 5577 5572 5569 5565 5561 5557 5554 5552 5550 5547 5546 5545 5542 5540 5537 5537 5537 5535 5534 5533 5533 5533 5533 5535 5536 5540 5545 5548 5551 5558 5565 5572 5579 5587 5596 5603 5610 5611 5616
5579 5575 5570 5564 5560 5556 5554 5550 5545 5542 5538 5535 5532 5530 5528 5526 5524 5522 5520 5519 5518 5517 5517 5516 5515 5515 5515 5517 5519 5523 5529 5528 5532 5538 5547 5554 5563 5571 5584 5592 5600 5606 5610
5565 5560 5555 5552 5548 5544 5539 5535 5530 5525 5521 5517 5514 5512 5509 5506 5506 5505 5503 5502 5500 5501 5500 5500 5499 5499 5502 5505 5506 5509 5510 5511 5515 5522 5530 5540 5548 5561 5574 5584 5592 5599 5603
5554 5549 5545 5541 5536 5532 5527 5521 5515 5509 5504 5499 5495 5493 5491 5489 5488 5487 5487 5485 5484 5485 5485 5486 5488 5490 5494 5496 5496 5498 5499 5498 5501 5508 5520 5534 5545 5557 5567 5577 5586 5591 5594
5545 5541 5536 5532 5526 5520 5513 5506 5499 5491 5484 5480 5476 5474 5472 5472 5471 5471 5471 5471 5472 5472 5473 5477 5480 5483 5487 5489 5493 5496 5496 5494 5496 5506 5519 5532 5544 5555 5561 5570 5579 5585 5592
5538 5533 5528 5522 5515 5507 5498 5487 5479 5472 5466 5461 5457 5455 5455 5455 5456 5457 5458 5460 5461 5461 5463 5466 5472 5478 5483 5485 5492 5498 5499 5502 5505 5511 5522 5533 5544 5551 5558 5566 5573 5582 5591
5531 5525 5518 5511 5502 5492 5481 5471 5459 5452 5445 5441 5438 5438 5439 5440 5443 5446 5449 5453 5454 5456 5459 5464 5472 5475 5481 5487 5493 5499 5505 5509 5513 5518 5526 5535 5544 5552 5560 5570 5578 5583 5588
5525 5518 5509 5500 5488 5477 5465 5454 5445 5435 5429 5426 5425 5426 5428 5430 5434 5437 5443 5447 5451 5454 5460 5466 5473 5477 5483 5489 5495 5502 5507 5512 5519 5525 5533 5541 5550 5558 5567 5572 5575 5582 5588
5517 5509 5499 5487 5474 5463 5453 5443 5434 5427 5420 5416 5417 5418 5421 5425 5429 5434 5439 5445 5449 5457 5463 5469 5476 5481 5485 5491 5498 5504 5511 5518 5524 5532 5541 5548 5556 5561 5564 5570 5576 5581 5585
5510 5500 5488 5476 5465 5455 5447 5439 5430 5423 5417 5414 5414 5416 5419 5422 5426 5431 5437 5442 5449 5457 5465 5472 5480 5485 5489 5495 5503 5509 5517 5524 5531 5538 5545 5549 5554 5561 5568 5572 5575 5579 5584
5504 5493 5480 5469 5459 5451 5444 5438 5431 5425 5420 5417 5417 5417 5418 5422 5426 5430 5436 5442 5452 5461 5468 5476 5482 5489 5495 5500 5507 5514 5521 5526 5533 5540 5545 5551 5558 5564 5568 5572 5576 5579 5582
5500 5488 5475 5464 5456 5449 5442 5436 5431 5425 5422 5419 5418 5418 5419 5421 5425 5430 5438 5447 5456 5464 5472 5479 5486 5493 5500 5505 5512 5518 5525 5532 5539 5544 5550 5556 5562 5565 5569 5573 5577 5580 5582
5497 5485 5472 5462 5454 5448 5442 5437 5433 5429 5425 5423 5422 5421 5421 5422 5426 5434 5445 5456 5463 5472 5479 5485 5492 5499 5503 5510 5517 5521 5529 5536 5542 5548 5553 5558 5562 5566 5569 5572 5575 5579 5581
5497 5485 5472 5463 5456 5450 5445 5441 5436 5432 5426 5425 5426 5428 5431 5435 5441 5449 5457 5464 5471 5479 5485 5492 5498 5504 5510 5517 5521 5526 5533 5539 5545 5549 5554 5559 5562 5565 5569 5571 5574 5576 5578
5498 5487 5477 5467 5459 5453 5450 5447 5442 5438 5433 5434 5438 5443 5448 5452 5457 5461 5466 5473 5480 5486 5491 5498 5502 5508 5514 5520 5525 5531 5536 5541 5546 5551 5555 5558 5561 5565 5567 5569 5570 5572 5574
5502 5493 5483 5474 5465 5459 5457 5455 5452 5449 5446 5448 5452 5456 5460 5463 5467 5471 5476 5482 5487 5492 5498 5503 5508 5513 5519 5523 5528 5533 5538 5543 5548 5551 5554 5557 5560 5561 5563 5564 5564 5566 5569
5508 5500 5491 5484 5478 5472 5468 5464 5462 5461 5462 5462 5464 5468 5471 5475 5478 5482 5486 5489 5492 5497 5502 5507 5511 5516 5521 5525 5530 5535 5539 5543 5546 5549 5553 5555 5556 5558 5559 5560 5560 5561 5562
Wind_Speed
51 53 54 48 49 52 54 56 58 59 60 60 61 60 62 63 64 64 65 66 66 63 61 61 61 59 58 58 57 55 52 52 51 45 39 41 43 44 42 43 41 37 35
48 48 53 55 55 57 59 61 63 64 64 64 64 64 65 65 63 64 63 63 64 64 63 63 62 62 60 58 57 56 55 52 51 48 43 41 42 46 45 45 44 43 40
49 50 51 54 57 59 62 63 63 64 65 66 67 65 64 61 59 58 60 61 61 61 62 63 61 60 60 59 57 53 51 50 49 49 45 41 39 44 48 49 49 47 46
53 55 56 58 60 61 62 63 64 65 65 65 65 65 64 63 58 55 55 56 58 60 62 63 63 58 58 58 55 52 49 51 51 51 51 46 39 37 40 46 50 53 49
54 56 58 60 62 63 64 65 66 67 68 68 68 68 66 61 58 57 57 57 58 60 60 60 59 62 63 62 60 55 48 48 52 51 48 45 41 38 37 40 48 54 52
57 60 62 64 66 67 69 69 70 70 70 71 70 67 64 61 58 58 59 58 56 55 57 58 59 60 61 60 57 49 45 44 47 46 45 46 42 39 36 36 42 53 56
61 63 65 66 67 68 69 69 68 68 68 67 64 63 61 60 60 59 57 56 55 56 54 53 51 52 54 56 56 48 41 42 45 48 48 46 45 41 39 41 41 49 54
60 62 63 63 64 63 63 63 62 62 62 61 60 60 60 58 58 58 57 55 51 50 45 49 50 52 53 56 57 58 52 49 48 48 45 43 40 40 41 40 41 46 51
54 56 56 57 58 59 61 62 62 61 60 60 60 59 59 56 56 53 53 54 54 54 56 56 57 58 60 60 60 60 59 58 54 48 47 44 42 41 38 42 42 36 47
50 52 55 57 59 59 59 58 57 57 57 58 57 56 56 53 53 53 53 54 57 56 56 54 55 55 54 56 60 57 55 56 53 48 49 47 44 40 36 44 37 31 30
51 51 50 49 50 49 49 50 51 50 51 51 51 52 52 54 52 49 50 50 51 48 47 47 47 51 52 50 47 46 45 47 44 44 45 46 49 51 46 45 34 27 27
43 41 42 43 43 42 42 45 49 51 52 52 53 54 55 54 49 51 51 49 46 43 40 41 42 40 36 37 37 41 37 39 42 44 43 40 44 40 42 37 28 32 39
39 36 35 35 36 41 44 47 50 53 55 55 55 53 51 51 52 48 46 43 39 38 38 36 31 26 27 26 26 20 21 30 35 40 39 37 38 38 37 31 37 35 35
28 32 32 32 35 42 48 52 55 56 57 55 54 52 50 48 43 43 38 33 34 34 34 29 28 25 24 21 14 14 8 13 20 30 38 37 37 35 30 34 32 32 30
30 30 32 37 42 48 52 53 49 50 52 52 51 49 45 42 39 30 27 28 26 27 20 25 29 31 22 27 22 14 15 23 25 23 39 37 30 31 33 31 31 28 25
28 31 35 38 46 54 54 51 53 48 43 38 34 32 30 27 24 23 21 19 19 17 21 29 27 26 29 22 23 20 25 28 30 29 32 35 39 32 26 27 31 25 20
31 32 38 46 54 54 52 44 40 38 35 29 25 21 18 18 20 18 14 17 17 20 31 29 28 29 29 25 26 28 26 24 34 41 38 33 32 33 33 28 22 21 20
33 37 43 49 51 46 36 37 32 29 24 20 18 15 13 14 16 15 20 17 28 37 35 30 24 29 35 35 33 28 31 38 40 35 33 32 30 26 22 19 19 17 16
36 42 45 47 40 30 31 31 27 21 14 6 5 8 11 14 16 19 19 27 47 43 35 31 28 28 36 35 37 36 40 40 39 36 30 26 22 19 17 16 14 13 14
42 45 45 38 30 26 25 23 21 17 11 3 2 6 9 13 16 21 20 29 49 37 35 27 26 33 36 36 36 35 38 36 34 29 24 23 21 18 15 12 12 12 12
41 44 40 33 27 23 23 22 19 14 10 6 1 3 6 10 19 26 21 40 46 33 38 28 33 35 36 35 36 39 38 33 29 26 24 24 21 16 13 11 10 10 10
40 41 36 29 24 20 22 18 15 16 12 7 4 5 12 18 25 28 38 40 27 41 32 30 27 27 28 30 33 35 35 33 28 25 24 24 21 14 11 12 10 8 10
37 41 37 28 25 21 21 17 19 21 15 9 14 28 32 31 29 43 36 28 33 37 31 28 26 26 25 27 30 31 31 27 24 23 22 18 12 12 13 12 11 9 11
38 43 39 37 26 21 19 19 21 24 23 24 30 32 30 24 24 24 24 34 33 31 28 27 27 27 25 22 23 25 24 24 22 18 14 13 13 13 12 12 12 13 13
41 42 40 41 35 24 19 20 21 24 25 31 30 26 24 23 24 26 31 26 23 22 22 22 22 22 18 17 18 17 18 17 16 14 12 13 13 11 13 14 14 17 18
35 43 39 34 36 34 25 19 20 18 22 24 26 24 17 14 15 16 18 21 21 22 22 18 20 21 19 16 14 12 13 11 9 10 12 11 11 13 15 17 18 20 20
Wind_Direction
259 262 265 259 258 259 262 267 269 270 272 277 280 282 286 289 287 286 287 287 286 286 286 284 281 279 278 276 274 274 273 274 274 274 269 267 268 268 267 267 265 264 261
257 259 260 263 262 262 266 268 268 272 275 280 281 285 284 283 283 283 282 283 284 284 284 283 282 280 277 275 274 273 273 274 274 274 269 261 258 259 261 261 261 261 258
261 261 257 259 261 268 272 274 277 278 279 280 280 280 281 282 280 278 278 279 279 280 280 280 278 279 279 276 273 274 274 272 271 270 269 266 257 251 251 253 252 250 251
268 268 268 268 270 273 275 276 276 277 278 281 283 283 283 285 282 278 278 278 278 278 277 277 279 277 274 273 270 268 268 270 268 267 269 266 261 252 249 247 248 250 245
273 273 273 275 276 277 279 280 280 281 283 283 284 285 286 284 282 282 281 280 279 277 275 276 276 276 276 277 278 275 272 265 264 263 261 259 260 259 253 247 244 246 246
277 279 279 279 280 281 282 282 283 283 283 283 284 285 285 284 283 283 283 281 278 275 273 272 272 273 274 274 275 274 268 263 260 260 258 257 255 257 256 249 244 244 242
279 279 278 279 280 280 281 282 283 283 283 284 285 284 284 283 283 283 282 281 281 278 273 268 268 268 267 269 270 269 264 259 261 260 257 253 252 253 252 246 242 241 241
278 279 279 279 279 281 283 283 282 281 282 281 281 282 282 283 283 282 282 280 279 277 273 268 269 264 264 265 267 268 264 258 255 256 253 248 249 246 244 238 242 246 241
285 285 285 284 284 283 283 282 283 284 283 282 282 282 282 281 281 278 276 276 275 277 276 273 269 267 262 262 263 264 266 264 262 260 250 249 247 245 243 231 238 254 241
284 283 282 281 281 281 281 282 282 282 282 281 281 280 280 277 277 278 279 281 282 281 279 275 272 269 266 263 262 263 259 260 258 250 246 250 243 232 235 229 230 240 258
287 287 284 281 279 281 283 285 284 284 285 284 282 280 280 277 280 282 280 283 281 277 276 272 267 265 264 264 259 254 258 256 250 247 242 241 236 231 221 224 221 241 252
289 286 284 285 287 286 286 290 292 288 286 285 282 281 278 282 282 284 280 283 277 277 273 270 268 260 252 250 256 258 250 241 239 235 235 228 225 212 210 215 222 232 234
286 288 294 296 297 298 295 291 292 290 288 287 285 284 282 282 283 283 280 279 273 270 271 264 254 244 246 247 244 246 232 247 239 226 220 212 193 196 199 202 224 228 239
310 309 303 299 297 298 298 296 294 291 290 287 286 285 284 283 280 279 277 266 265 266 264 251 234 225 213 197 209 220 242 189 184 182 188 184 188 191 204 213 224 234 209
306 301 298 300 305 307 306 304 297 295 292 288 284 280 278 276 274 266 253 262 264 260 250 211 204 194 209 222 197 174 138 131 142 139 179 189 187 205 210 197 192 189 200
312 309 307 311 314 313 311 308 305 302 296 291 283 275 272 268 252 238 250 253 234 235 201 186 175 187 181 188 194 174 164 151 151 156 161 172 166 149 157 179 186 185 198
318 316 314 315 315 315 318 315 313 308 300 288 276 269 264 241 233 234 222 206 208 194 176 174 172 175 171 166 170 173 178 176 159 140 141 151 163 171 176 176 174 186 198
328 327 322 319 321 324 325 324 320 316 308 287 273 258 235 221 227 200 187 192 180 165 168 169 168 180 163 146 146 142 148 144 142 150 155 156 160 164 165 167 177 180 188
338 333 331 329 331 332 335 334 335 332 327 304 229 201 217 216 198 185 196 182 173 168 171 176 173 162 149 147 153 158 155 154 155 157 157 152 146 148 155 163 164 173 190
343 340 337 338 340 337 338 340 343 347 350 5 190 233 212 191 196 195 178 172 174 167 176 165 168 165 160 154 158 155 156 160 157 158 157 159 162 163 153 152 174 186 197
344 344 342 342 346 344 344 346 351 359 356 337 5 179 188 200 182 178 170 175 164 165 163 165 159 156 159 156 158 158 159 160 162 163 172 176 178 171 170 180 193 203 208
351 352 350 353 1 1 1 9 12 7 13 16 36 79 125 133 139 144 156 152 158 162 153 149 155 157 154 159 161 160 164 167 171 177 178 183 187 182 185 202 210 220 219
4 7 8 11 16 15 20 27 15 18 33 65 97 117 110 108 128 154 152 136 156 159 149 145 147 153 161 166 168 166 170 174 180 182 185 186 184 192 197 207 220 229 245
15 16 17 20 20 22 33 35 27 41 67 102 119 120 127 137 147 158 150 149 146 156 147 148 148 155 166 168 161 167 174 184 185 189 193 187 188 196 207 230 252 257 254
20 23 25 31 34 41 52 47 43 56 85 112 128 136 135 130 135 135 146 141 152 162 161 161 160 160 165 172 171 173 177 187 195 193 196 210 219 233 250 253 252 250 253
20 28 32 37 41 42 46 53 58 70 90 111 133 146 148 140 138 139 148 161 163 174 177 182 183 178 182 176 172 169 177 190 212 225 235 248 252 250 240 238 240 245 258